Regional Weather Roundup
Issued by NWS

Home | Current Version | Previous Version | Text Only | Print | Product List | Glossary On
Versions: 1 2 3 4 5 6 7 8 9 10 11 12 13 14 15 16 17 18 19 20 21 22 23 24 25 26 27 28 29 30 31 32 33 34 35 36 37 38 39 40 41 42 43 44 45 46 47 48 49 50
861
ASUS43 KDTX 090210
RWRMI
MICHIGAN HOURLY REGIONAL WEATHER ROUNDUP
NATIONAL WEATHER SERVICE DETROIT/PONTIAC MI
900 PM EST THU DEC 08 2016

NOTE: "FAIR" INDICATES FEW OR NO CLOUDS BELOW 12,000 FEET WITH NO
SIGNIFICANT WEATHER AND/OR OBSTRUCTION TO VISIBILITY.

MIZ047>049-052>055-059>063-066>070-074>076-081>083-090300-
SOUTHEAST LOWER MICHIGAN

CITY           SKY/WX    TMP DP  RH WIND       PRES   REMARKS
ADRIAN         CLOUDY    21  17  84 W12       30.26R WCI   9
ALMA           CLOUDY    28  25  89 W8        30.20R WCI  20
ANN ARBOR      CLOUDY    24  20  84 SW12      30.22R WCI  13
BAD AXE        PTCLDY    28  20  69 NW10      30.12R WCI  19
CARO           MOCLDY    27  24  89 W10       30.15R WCI  17
DETROIT CITY   CLOUDY    27  21  78 W13G21    30.20R WCI  16
DETROIT        CLOUDY    26  20  77 SW15      30.23R WCI  14
FLINT          FLURRIES  28  23  81 W15       30.18R WCI  16
GROSSE ILE     CLOUDY    24  19  80 W12G20    30.22S WCI  13
HILLSDALE      FLURRIES  21  18  86 W12G18    30.23S WCI   9
HOWELL         CLOUDY    27  23  83 W14       30.19R WCI  16

CITY           SKY/WX    TMP DP  RH WIND       PRES   REMARKS
JACKSON        CLOUDY    23  18  81 W13       30.23R WCI  11
LAMBERTVILLE   CLOUDY    24  18  78 W10       30.28R WCI  13
LANSING        FLURRIES  27  22  81 W13       30.21S WCI  16
LAPEER         NOT AVBL
MASON          CLOUDY    26  23  87 W7        30.21S WCI  19
MONROE         CLOUDY    24  19  82 W14G20    30.25R WCI  12
MT. CLEMENS    CLOUDY    28  22  77 W13G21    30.16R WCI  18
PONTIAC        FLURRIES  27  21  78 W16       30.16R WCI  15
PORT HOPE        N/A     31  20  63 NW17G29   30.08R WCI  19
PORT HURON     PTCLDY    27  21  80 W6        30.15R WCI  20
TRI CITIES     MOCLDY    27  24  89 W10       30.18R WCI  17
MIDLAND        CLOUDY    29  24  82 W5        30.17R WCI  24
TROY           FLURRIES  29  21  73 W12G18    30.20S WCI  19
SAGINAW HB     MOCLDY    28  23  80 W12       30.16S WCI  18
$$
MIZ043>046-050>051-056>058-064>065-071>073-077>080-090300-
SOUTHWEST LOWER MICHIGAN

CITY           SKY/WX    TMP DP  RH WIND       PRES   REMARKS
BATTLE CREEK   MOCLDY    25  22  88 W13       30.24S WCI  14
BENTON HARBOR  FLURRIES  29  18  63 W14G22    30.31S WCI  18
BIG RAPIDS     CLOUDY    26  23  89 W6        30.18R WCI  19
COLDWATER      FLURRIES  22  19  87 SW9G16    30.27R WCI  12
FREMONT        LGT SNOW  28  28  97 NW7       30.22R VSB 1   WCI  21
HOLLAND        CLOUDY    31  20  63 W8        30.26R WCI  23
GRAND RAPIDS   CLOUDY    29  21  72 W9        30.23R WCI  20
IONIA          FLURRIES  28  24  86 W12       30.20S WCI  17
KALAMAZOO      LGT SNOW  26  22  84 W10       30.27R FOG     WCI  16
LUDINGTON      CLOUDY    29  27  91 N9        30.21S WCI  20
MARSHALL       FLURRIES  23  21  90 SW10      30.24R WCI  13
MOUNT PLEASANT CLEAR     27  24  88 W6        30.17R WCI  20
MUSKEGON       FLURRIES  33  23  66 NW14      30.24R WCI  23
SOUTH HAVEN    FLURRIES  30  21  70 W13G18    30.28F WCI  20
$$
MIZ016>042-090300-
NORTHERN LOWER MICHIGAN

CITY           SKY/WX    TMP DP  RH WIND       PRES   REMARKS
ALPENA         LGT SNOW  26  21  81 W5        30.11R WCI  20
BEAVER ISLAND  CLOUDY    28  22  76 NW13G21   30.17R WCI  18
BELLAIRE       CLOUDY    29  23  79 NW5       30.17R WCI  24
CADILLAC       FLURRIES  24  20  86 NW6       30.13S WCI  17
CHARLEVOIX     FLURRIES  31  21  67 NW24G32   30.18R WCI  17
FRANKFORT      MOCLDY    32  21  63 NW15G22   30.19R WCI  22
GAYLORD        LGT SNOW  25  21  85 CALM      30.10S VSB 1
GRAYLING       PTCLDY    22  19  89 W3        30.13R
HARBOR SPRINGS MOCLDY    29  19  66 W5G17     30.14R WCI  24
HOUGHTON LAKE  FLURRIES  24  19  81 NW9       30.14R WCI  14
MANISTEE       LGT SNOW  30  25  80 NW13G20   30.20S WCI  20
OSCODA         CLEAR     26  17  68 MISG      30.12R
PELLSTON       CLOUDY    28  18  66 NW20      30.13R WCI  15
ROGERS CITY    LGT SNOW  29  24  81 N13G18    30.11R WCI  18
TRAVERSE CITY  LGT SNOW  30  25  81 NW12G18   30.18R WCI  20
$$
MIZ007>008-015-090300-
EASTERN UPPER MICHIGAN

CITY           SKY/WX    TMP DP  RH WIND       PRES   REMARKS
KINROSS        FLURRIES  21  18  86 N6        30.12R WCI  14
MACKINAC ISLAN MOCLDY    26  21  83 NW9G18    30.11R WCI  16
NEWBERRY       LGT SNOW  24  23  96 NW7       30.13R VSB 3/4 WCI  16
S. S. MARIE    PTCLDY    23  12  62 N7        30.11R WCI  15
MUNISING         N/A     28  22  78 NW15      30.18R WCI  16
$$
MIZ004>006-011>014-085-090300-
CENTRAL UPPER MICHIGAN

CITY           SKY/WX    TMP DP  RH WIND       PRES   REMARKS
MANISTIQUE     LGT SNOW  25  24  96 NW10      30.18R WCI  15
ESCANABA       CLEAR     25  18  74 NW10      30.23R WCI  15
MENOMINEE      PTCLDY    26  18  71 NW6       30.27R WCI  19
SAWYER-GWINN   MOCLDY    19  16  86 NW9       30.19R WCI   9
$$
MIZ001>003-009>011-084-090300-
WESTERN UPPER MICHIGAN

CITY           SKY/WX    TMP DP  RH WIND       PRES   REMARKS
IRON MOUNTAIN  FLURRIES  23  16  74 NW13      30.22R WCI  11
HOUGHTON       FLURRIES  22  13  68 NW15      30.24R WCI   9
COPPER HARBOR    N/A     26  22  84 N23G31    30.24R WCI  11
IRONWOOD       LGT SNOW  20  17  88 NW12G22   30.31S FOG     WCI   8
$$

ABBREVIATIONS USED IN REMARKS
   TC - TEMPERATURE IN CELSIUS
  WCI - WIND CHILL INDEX
   HX - HEAT INDEX
  VSB - VISIBILITY





USA.gov is the U.S. government's official web portal to all federal, state and local government web resources and services.